This demonstration page uses our WeatherBlox Daily Observations layout. Learn more.

Left ArrowRight Arrow

41.86663, -103.66717

Hourly Observations for August 9, 2018

Temp ( °F °C ) Dew Point ( °F °C ) Humidity (%) Winds ( mph kmh ) Pressure ( in mb ) Visibility ( mi km ) Precip ( " mm )
12:53 am 00:53 Clear 62 16.7 58 14.4 86 86 NE 6 9 30.01 1016 10 16 0.00 0.00
1:53 am 01:53 Clear 61 16.1 57 13.9 87 87 NE 3 6 30.01 1016 10 16 0.00 0.00
2:53 am 02:53 Clear 57 13.9 56 13.3 96 96 NNW 3 6 30.04 1017 10 16 0.00 0.00
3:53 am 03:53 Clear 55 12.8 55 12.8 100 100 N 3 6 30.03 1017 10 16 0.00 0.00
4:53 am 04:53 Clear 55 12.8 55 12.8 100 100 NNE 5 7 30.03 1017 10 16 0.00 0.00
5:53 am 05:53 Clear 55 12.8 54 12.2 96 96 Calm 30.04 1017 10 16 0.00 0.00
6:53 am 06:53 Sunny 60 15.6 57 13.9 90 90 Calm 30.04 1017 10 16 0.00 0.00
7:53 am 07:53 Sunny 67 19.4 59 15 76 76 Calm 30.06 1018 10 16 0.00 0.00
8:53 am 08:53 Sunny 73 22.8 59 15 62 62 Calm 30.06 1018 10 16 0.00 0.00
9:53 am 09:53 Sunny 79 26.1 60 15.6 52 52 Calm 30.05 1018 10 16 0.00 0.00
10:53 am 10:53 Sunny 85 29.4 56 13.3 37 37 Calm 30.04 1017 10 16 0.00 0.00
11:53 am 11:53 Sunny 88 31.1 54 12.2 31 31 SSE 5 7 30.03 1017 10 16 0.00 0.00
12:53 pm 12:53 Sunny 90 32.2 55 12.8 31 31 E 6 9 30.02 1017 10 16 0.00 0.00
1:53 pm 13:53 Sunny 91 32.8 51 10.6 26 26 E 8 13 30.00 1016 10 16 0.00 0.00
2:53 pm 14:53 Sunny 94 34.4 47 8.3 20 20 VRB 5 7 30.00 1016 10 16 0.00 0.00
3:53 pm 15:53 Sunny 92 33.3 43 6.1 18 18 Calm 30.00 1016 10 16 0.00 0.00
4:53 pm 16:53 Sunny 90 32.2 47 8.3 23 23 E 6 9 30.00 1016 10 16 0.00 0.00
5:53 pm 17:53 Sunny 89 31.7 56 13.3 33 33 E 6 9 29.99 1016 10 16 0.00 0.00
6:53 pm 18:53 Sunny 86 30 62 16.7 45 45 E 5 7 29.99 1016 10 16 0.00 0.00
7:53 pm 19:53 Mostly Sunny 77 25 63 17.2 62 62 E 6 9 30.01 1016 10 16 0.00 0.00
8:53 pm 20:53 Clear 72 22.2 59 15 64 64 E 8 13 30.03 1017 10 16 0.00 0.00
9:53 pm 21:53 Clear 70 21.1 59 15 68 68 E 9 15 30.05 1018 10 16 0.00 0.00
10:53 pm 22:53 Clear 68 20 59 15 73 73 E 10 17 30.04 1017 10 16 0.00 0.00
11:53 pm 23:53 Clear 65 18.3 59 15 81 81 ESE 6 9 30.05 1018 10 16 0.00 0.00

Powered by AerisWeather